Other Surface Observations
Issued by NWS Charleston, SC

Home | Current Version | Previous Version | Text Only | Print | Product List | Glossary On
Versions: 1 2 3 4 5 6 7 8 9 10 11 12 13 14 15 16 17 18 19 20 21 22 23 24 25 26 27 28 29 30 31 32 33 34 35 36 37 38 39 40 41 42 43 44 45 46 47 48 49 50
000
SXUS52 KCHS 301227
OSOCHS

MARINE OBSERVATIONS
NATIONAL WEATHER SERVICE CHARLESTON SC
800 AM EDT SAT MAY 30 2015

...DOWNTOWN CHARLESTON AND HARBOR...

CITY           SKY/WX    TMP DP  RH WIND       PRES   REMARKS
WATERFRONT PRK   N/A     77  71  82 E9        30.14R
FORT JOHNSON   NOT AVBL

...LAKE MOULTRIE...

CITY           SKY/WX    TMP DP  RH WIND       PRES   REMARKS
PINOPOLIS      NOT AVBL

...LAKE AND SUPPLEMENTAL COASTAL OBSERVATIONS...

STATION/POSITION TIME  TEMP    WIND        PRES    WAVE   SWELL
                       AIR SEA DIR/SP/G            HT/PER HT/PER/DIR
                 (UTC) (F)     (DEG/KT/KT) (MB)    (FT/S) (FT/S/D)
FORT PULASKI     1200   77 80   90/ 12/ 14 1021.6R
SAPELO ISLAND    1200   75      50/  4     1021.0R
UPR LAKE MARION  NOT AVBL
WINYAH BAY       1100   76      80/  5     1021.0R
LAKE MURRAY      1200   69      80/  5/  6 1022.4R
ACE BASIN NERRS  NOT AVBL


...C-MAN AND BUOY OBSERVATIONS...

STATION/POSITION TIME  TEMP    WIND        PRES    WAVE   SWELL
                       AIR SEA DIR/SP/G            HT/PER HT/PER/DIR
                 (UTC) (F)     (DEG/KT/KT) (MB)    (FT/S) (FT/S/D)
BUOY 41004       1150   78 79   80/ 12/ 14 1020.8R   4/ 9   3/ 9
BUOY 41008       1150   73 78  120/  2/  4 1020.6R   3/ 9   3/ 90/ 9
FOLLY BEACH CMAN 1200   77      80/ 10/ 12 1021.7R
CAPERS NS BUOY   1108   77     100/ 12/ 16 1021.3R
FRIPP NS BUOY    1100   77     100/  8/  8 1020.3R
5E ST. MARYS GA  1121      79                N/A     3/ 9


STATION/POSITION TIME  TEMP    WIND        PRES    WAVE   SWELL
                       AIR SEA DIR/SP/G            HT/PER HT/PER/DIR
                 (UTC) (F)     (DEG/KT/KT) (MB)    (FT/S) (FT/S/D)
FRYING PAN BUOY  1150   77 75  120/ 10/ 12 1022.9R   4/ 6   3/110/ 6
BUOY 41025       1150   76 79  110/  6/ 10 1023.8R   4/ 9   3/100/ 9
CAPE LOOKOUT NC  1200   76      70/  6/  6 1023.2R
BUOY 41002       1150   74 74   50/ 10/ 12 1021.5R   6/ 9   5/ 80/ 9
BUOY 41010       1120   78 79   90/ 12/ 16 1018.7R
ST AUGUSTINE FL  1200   77 78  100/  6/  6 1020.3R

$$



USA.gov is the U.S. government's official web portal to all federal, state and local government web resources and services.